379  
ASUS41 KCLE 272312  
RWRCLE  
OHIO REGIONAL WEATHER ROUNDUP  
NATIONAL WEATHER SERVICE WILMINGTON, OH  
700 PM EDT WED OCT 27 2021  
 
NOTE: "FAIR" INDICATES FEW OR NO CLOUDS BELOW 12,000 FEET WITH NO  
SIGNIFICANT WEATHER AND/OR S TO VISIBILITY
.  
 
OHZ001>008-015>018-024>027-034-035-043-044-280000-  
NORTHWEST OHIO  
 
CITY SKY/WX TMP DP RH WIND PRES REMARKS
 
DEFIANCE CLOUDY 51 43 74 SE6 29.95F  
FINDLAY CLOUDY 53 45 74 E7 29.94S  
TOLEDO EXPRESS CLOUDY 51 45 79 SE3 29.96S  
TOLEDO EXEC CLOUDY 51 45 79 CALM 29.98R  
LIMA CLOUDY 50 44 80 E6 29.93F  

 
 
OHZ009>014-019>023-028>033-038-089-280000-  
NORTHEAST OHIO  
 
CITY SKY/WX TMP DP RH WIND PRES REMARKS
 
CLE-HOPKINS CLOUDY 54 49 83 NE5 29.94S  
CLE-LAKEFRONT LGT RAIN 55 51 86 E3 29.95S  
CUY CO. ARPT CLOUDY 54 52 94 E5 29.96S  
LORAIN-ELYRIA CLOUDY 54 51 90 NE5 29.96F  
ASHTABULA FAIR 49 47 93 CALM 29.97F  
AKRON-CANTON CLOUDY 54 49 83 N5 29.95S  
WOOSTER CLOUDY 52 49 89 CALM 29.96F  
MANSFIELD CLOUDY 50 49 96 E3 29.95S FOG  
YOUNGSTOWN DRIZZLE 52 49 89 N6 29.96S  

 
 
OHZ042-051>053-060>062-070>072-077>081-280000-  
SOUTHWEST OHIO  
 
CITY SKY/WX TMP DP RH WIND PRES REMARKS
 
CINC-COVINGTON FAIR 51 41 68 E13 29.91R  
CINC-LUNKEN FAIR 49 44 83 E6 29.94R  
HAMILTON CLOUDY 50 43 77 E10 29.94R  
DAYTON CLOUDY 50 41 71 E13 29.93F  
WRIGHT-PAT AFB CLOUDY 49 40 69 E10 29.93F  
DAYTON GENERAL CLOUDY 49 42 77 E10 29.92F  
WILMINGTON CLOUDY 48 43 82 SE12 29.93S  

 
 
OHZ036-037-039>041-045>050-054>059-063>069-073>076-082>088-280000-  
CENTRAL AND SOUTHEAST OHIO  
 
CITY SKY/WX TMP DP RH WIND PRES REMARKS
 
COLUMBUS CLOUDY 51 44 77 E7 29.95R  
OSU AIRPORT CLOUDY 51 46 83 E3 29.95R  
BOLTON FIELD CLOUDY 48 45 87 SE3 29.96R  
RICKENBACK AFB CLOUDY 50 44 81 E3 29.95S  
NEWARK CLOUDY 53 44 71 E5 29.95S  
MARION CLOUDY 51 46 83 CALM 29.96R  
LANCASTER CLOUDY 50 46 86 E3 29.96S  
ZANESVILLE CLOUDY 52 46 80 E3 29.96S  
NEW PHILLY CLOUDY 53 50 89 CALM 29.95F  

 
 
 
CLICK HERE TO GO TO PREVIOUS BULLETINS.

The Nexlab OH Page
The Nexlab PA Page Main Text Page